QPF
0.00 0.00 0.00 0.01 0.02 0.02 0.02 0.01 0.00 0.00 0.00 0.00 0.00 0.00 0.00 0.00 0.00 0.00 0.00 0.00 0.00 0.00 0.00 0.00 0.00 0.00 0.01 0.01 0.01 0.02 0.02 0.02 0.02 0.03 0.03 0.04 0.04 0.04 0.03 0.03 0.03 0.03 0.03 0.04
0.00 0.00 0.01 0.01 0.01 0.01 0.01 0.00 0.00 0.00 0.00 0.00 0.00 0.01 0.00 0.00 0.00 0.00 0.00 0.00 0.00 0.00 0.00 0.00 0.00 0.00 0.00 0.00 0.00 0.01 0.01 0.02 0.01 0.02 0.03 0.04 0.04 0.03 0.03 0.03 0.05 0.03 0.03 0.04
0.00 0.00 0.01 0.01 0.01 0.00 0.00 0.00 0.00 0.00 0.00 0.01 0.02 0.07 0.04 0.01 0.00 0.00 0.00 0.00 0.00 0.00 0.00 0.00 0.00 0.00 0.00 0.00 0.00 0.00 0.00 0.01 0.01 0.02 0.03 0.03 0.05 0.05 0.05 0.06 0.06 0.04 0.04 0.04
0.00 0.00 0.00 0.00 0.01 0.00 0.00 0.00 0.01 0.00 0.00 0.01 0.03 0.09 0.08 0.03 0.02 0.01 0.00 0.00 0.00 0.00 0.00 0.00 0.00 0.00 0.00 0.00 0.00 0.00 0.00 0.01 0.02 0.02 0.03 0.03 0.05 0.07 0.07 0.07 0.07 0.05 0.05 0.04
0.00 0.00 0.00 0.00 0.00 0.00 0.00 0.00 0.00 0.00 0.01 0.01 0.03 0.05 0.08 0.05 0.03 0.01 0.00 0.01 0.00 0.00 0.00 0.00 0.00 0.00 0.00 0.00 0.00 0.00 0.01 0.01 0.01 0.02 0.02 0.03 0.03 0.03 0.03 0.04 0.05 0.06 0.05 0.03
0.00 0.00 0.00 0.00 0.00 0.00 0.00 0.00 0.00 0.00 0.01 0.03 0.04 0.04 0.06 0.05 0.04 0.02 0.01 0.01 0.00 0.00 0.00 0.00 0.00 0.00 0.00 0.01 0.00 0.01 0.01 0.02 0.02 0.02 0.02 0.03 0.04 0.04 0.04 0.05 0.06 0.05 0.04 0.03
0.00 0.00 0.00 0.00 0.00 0.00 0.00 0.00 0.01 0.02 0.02 0.02 0.02 0.02 0.04 0.03 0.01 0.00 0.00 0.00 0.00 0.00 0.00 0.00 0.00 0.00 0.00 0.00 0.00 0.01 0.01 0.03 0.03 0.02 0.02 0.03 0.04 0.05 0.05 0.04 0.04 0.04 0.04 0.04
0.01 0.00 0.00 0.00 0.00 0.00 0.00 0.00 0.01 0.01 0.01 0.01 0.02 0.05 0.04 0.01 0.00 0.00 0.00 0.00 0.00 0.00 0.00 0.00 0.00 0.00 0.00 0.01 0.01 0.00 0.01 0.02 0.02 0.02 0.02 0.03 0.04 0.05 0.04 0.03 0.03 0.03 0.02 0.02
0.01 0.01 0.00 0.00 0.00 0.00 0.00 0.00 0.01 0.01 0.01 0.01 0.03 0.07 0.06 0.02 0.01 0.01 0.01 0.01 0.01 0.01 0.00 0.00 0.00 0.00 0.00 0.00 0.00 0.00 0.01 0.02 0.03 0.03 0.04 0.04 0.03 0.03 0.03 0.03 0.03 0.03 0.02 0.02
0.00 0.00 0.00 0.00 0.00 0.00 0.00 0.01 0.01 0.02 0.01 0.01 0.03 0.07 0.08 0.03 0.02 0.02 0.02 0.01 0.01 0.01 0.00 0.00 0.00 0.00 0.00 0.00 0.00 0.00 0.01 0.01 0.02 0.03 0.03 0.03 0.03 0.03 0.03 0.03 0.04 0.03 0.02 0.02
0.01 0.00 0.00 0.00 0.00 0.00 0.00 0.00 0.00 0.02 0.01 0.02 0.03 0.05 0.01 0.01 0.02 0.02 0.02 0.01 0.01 0.00 0.00 0.00 0.00 0.00 0.00 0.01 0.01 0.00 0.00 0.01 0.01 0.01 0.01 0.02 0.03 0.03 0.03 0.03 0.03 0.03 0.03 0.03
0.00 0.01 0.01 0.01 0.00 0.00 0.00 0.00 0.00 0.00 0.00 0.01 0.02 0.02 0.01 0.00 0.01 0.01 0.01 0.01 0.00 0.00 0.00 0.00 0.00 0.00 0.01 0.02 0.04 0.03 0.01 0.00 0.00 0.00 0.01 0.01 0.02 0.02 0.02 0.02 0.02 0.03 0.04 0.04
0.00 0.01 0.01 0.03 0.02 0.01 0.00 0.00 0.00 0.00 0.00 0.01 0.02 0.02 0.00 0.00 0.01 0.01 0.01 0.00 0.01 0.00 0.00 0.01 0.01 0.01 0.01 0.02 0.04 0.07 0.03 0.00 0.00 0.00 0.00 0.01 0.01 0.01 0.01 0.01 0.02 0.03 0.04 0.05
0.00 0.00 0.01 0.01 0.01 0.02 0.01 0.01 0.00 0.00 0.01 0.01 0.02 0.02 0.01 0.01 0.02 0.02 0.01 0.01 0.01 0.01 0.01 0.01 0.05 0.04 0.01 0.01 0.04 0.07 0.05 0.01 0.00 0.01 0.01 0.01 0.01 0.01 0.02 0.02 0.03 0.03 0.03 0.04
0.00 0.00 0.00 0.00 0.00 0.01 0.01 0.01 0.00 0.00 0.00 0.01 0.01 0.01 0.01 0.00 0.01 0.02 0.02 0.01 0.01 0.01 0.01 0.02 0.03 0.05 0.02 0.03 0.02 0.02 0.04 0.03 0.02 0.01 0.01 0.01 0.02 0.02 0.03 0.03 0.03 0.02 0.02 0.02
0.00 0.00 0.00 0.00 0.01 0.02 0.01 0.00 0.00 0.00 0.00 0.00 0.01 0.01 0.00 0.01 0.03 0.04 0.02 0.02 0.02 0.03 0.04 0.03 0.02 0.03 0.04 0.04 0.02 0.02 0.02 0.03 0.03 0.03 0.02 0.02 0.03 0.04 0.03 0.03 0.03 0.02 0.02 0.03
0.00 0.00 0.00 0.01 0.00 0.01 0.01 0.00 0.00 0.00 0.00 0.00 0.01 0.01 0.00 0.01 0.03 0.03 0.02 0.02 0.01 0.02 0.04 0.04 0.04 0.04 0.05 0.04 0.04 0.03 0.03 0.03 0.03 0.04 0.04 0.03 0.04 0.04 0.03 0.03 0.03 0.03 0.02 0.02
0.00 0.00 0.00 0.01 0.01 0.02 0.02 0.01 0.00 0.00 0.00 0.00 0.00 0.00 0.00 0.01 0.02 0.03 0.02 0.01 0.01 0.01 0.01 0.02 0.03 0.03 0.02 0.02 0.01 0.01 0.02 0.02 0.04 0.06 0.06 0.05 0.05 0.05 0.06 0.05 0.04 0.03 0.02 0.01
0.00 0.00 0.00 0.01 0.02 0.03 0.03 0.01 0.00 0.01 0.01 0.01 0.01 0.01 0.01 0.01 0.01 0.03 0.02 0.00 0.00 0.00 0.01 0.01 0.01 0.00 0.00 0.01 0.01 0.01 0.02 0.03 0.03 0.04 0.03 0.03 0.04 0.04 0.05 0.04 0.04 0.04 0.03 0.02
0.00 0.01 0.01 0.01 0.02 0.03 0.02 0.00 0.00 0.01 0.02 0.01 0.00 0.00 0.02 0.03 0.05 0.06 0.03 0.01 0.00 0.00 0.00 0.00 0.00 0.00 0.00 0.01 0.01 0.02 0.03 0.03 0.02 0.02 0.02 0.02 0.03 0.04 0.04 0.04 0.05 0.04 0.04 0.03
0.00 0.01 0.02 0.01 0.02 0.03 0.01 0.00 0.00 0.02 0.02 0.00 0.01 0.01 0.01 0.01 0.03 0.04 0.01 0.01 0.00 0.00 0.00 0.00 0.00 0.00 0.00 0.01 0.01 0.02 0.02 0.01 0.01 0.01 0.01 0.02 0.03 0.03 0.04 0.05 0.05 0.05 0.04 0.03
0.01 0.03 0.04 0.03 0.02 0.02 0.00 0.00 0.00 0.01 0.00 0.01 0.01 0.01 0.01 0.02 0.02 0.02 0.01 0.01 0.01 0.00 0.00 0.00 0.00 0.00 0.00 0.00 0.00 0.00 0.01 0.01 0.01 0.01 0.01 0.02 0.04 0.03 0.03 0.04 0.05 0.04 0.03 0.04
0.01 0.01 0.02 0.02 0.02 0.01 0.00 0.00 0.01 0.02 0.01 0.01 0.03 0.02 0.02 0.03 0.02 0.01 0.01 0.01 0.01 0.01 0.01 0.01 0.00 0.00 0.00 0.00 0.00 0.01 0.01 0.01 0.02 0.02 0.03 0.05 0.05 0.03 0.03 0.04 0.04 0.04 0.04 0.04
0.02 0.01 0.02 0.02 0.01 0.00 0.00 0.00 0.01 0.03 0.01 0.01 0.02 0.03 0.01 0.02 0.01 0.01 0.01 0.01 0.01 0.01 0.03 0.02 0.01 0.01 0.01 0.00 0.00 0.01 0.01 0.02 0.03 0.04 0.03 0.03 0.04 0.03 0.03 0.03 0.03 0.03 0.03 0.03
0.03 0.02 0.02 0.02 0.02 0.00 0.00 0.00 0.01 0.02 0.03 0.01 0.01 0.02 0.01 0.01 0.01 0.02 0.03 0.02 0.01 0.01 0.01 0.01 0.01 0.01 0.01 0.01 0.01 0.01 0.01 0.02 0.03 0.04 0.03 0.02 0.02 0.03 0.03 0.02 0.02 0.02 0.02 0.02
0.03 0.02 0.02 0.03 0.03 0.02 0.02 0.03 0.03 0.01 0.04 0.04 0.01 0.00 0.01 0.01 0.01 0.01 0.01 0.01 0.01 0.01 0.02 0.02 0.02 0.02 0.01 0.01 0.01 0.01 0.02 0.03 0.03 0.03 0.02 0.02 0.02 0.02 0.03 0.03 0.01 0.02 0.02 0.02
MSLP
1003.10 1003.63 1004.00 1004.18 1004.21 1004.15 1004.08 1004.06 1004.12 1004.28 1004.49 1004.70 1004.86 1004.91 1004.81 1004.57 1004.20 1003.77 1003.32 1002.90 1002.56 1002.31 1002.14 1002.04 1001.98 1001.95 1001.92 1001.91 1001.92 1001.97 1002.07 1002.21 1002.40 1002.62 1002.83 1003.02 1003.14 1003.20 1003.18 1003.09 1002.95 1002.79 1002.62 1002.47
1003.82 1004.18 1004.38 1004.42 1004.37 1004.29 1004.27 1004.36 1004.57 1004.89 1005.27 1005.64 1005.91 1006.04 1005.99 1005.76 1005.38 1004.91 1004.42 1003.94 1003.53 1003.19 1002.91 1002.68 1002.48 1002.30 1002.14 1002.00 1001.92 1001.91 1002.00 1002.17 1002.42 1002.70 1002.99 1003.25 1003.42 1003.50 1003.49 1003.40 1003.26 1003.10 1002.96 1002.86
1004.49 1004.65 1004.66 1004.56 1004.42 1004.33 1004.36 1004.56 1004.93 1005.43 1005.98 1006.49 1006.88 1007.08 1007.06 1006.84 1006.45 1005.96 1005.43 1004.92 1004.46 1004.07 1003.72 1003.40 1003.10 1002.80 1002.52 1002.28 1002.10 1002.02 1002.07 1002.23 1002.50 1002.82 1003.15 1003.44 1003.65 1003.75 1003.74 1003.65 1003.52 1003.38 1003.28 1003.24
1005.04 1005.02 1004.86 1004.63 1004.42 1004.34 1004.45 1004.77 1005.30 1005.96 1006.67 1007.30 1007.78 1008.04 1008.04 1007.81 1007.41 1006.90 1006.36 1005.84 1005.37 1004.96 1004.59 1004.23 1003.88 1003.51 1003.14 1002.81 1002.54 1002.39 1002.38 1002.51 1002.75 1003.07 1003.41 1003.71 1003.92 1004.02 1004.02 1003.93 1003.81 1003.70 1003.64 1003.65
1005.43 1005.26 1004.98 1004.67 1004.45 1004.40 1004.60 1005.06 1005.74 1006.55 1007.38 1008.11 1008.65 1008.93 1008.93 1008.69 1008.26 1007.74 1007.20 1006.70 1006.26 1005.88 1005.53 1005.19 1004.83 1004.44 1004.03 1003.63 1003.29 1003.06 1002.98 1003.04 1003.24 1003.51 1003.82 1004.10 1004.29 1004.39 1004.38 1004.30 1004.19 1004.10 1004.06 1004.12
1005.66 1005.40 1005.05 1004.72 1004.52 1004.55 1004.85 1005.44 1006.25 1007.18 1008.10 1008.90 1009.46 1009.74 1009.73 1009.46 1009.02 1008.51 1007.99 1007.52 1007.14 1006.83 1006.56 1006.28 1005.96 1005.59 1005.17 1004.73 1004.34 1004.03 1003.86 1003.84 1003.95 1004.16 1004.40 1004.63 1004.79 1004.87 1004.85 1004.76 1004.66 1004.58 1004.56 1004.64
1005.71 1005.41 1005.07 1004.78 1004.65 1004.78 1005.19 1005.89 1006.80 1007.81 1008.79 1009.60 1010.16 1010.43 1010.39 1010.11 1009.67 1009.18 1008.71 1008.31 1008.02 1007.81 1007.64 1007.46 1007.21 1006.88 1006.48 1006.04 1005.60 1005.23 1004.97 1004.85 1004.86 1004.97 1005.13 1005.29 1005.40 1005.43 1005.39 1005.31 1005.20 1005.13 1005.12 1005.20
1005.59 1005.33 1005.04 1004.84 1004.81 1005.03 1005.55 1006.33 1007.30 1008.34 1009.32 1010.13 1010.67 1010.91 1010.87 1010.59 1010.18 1009.73 1009.34 1009.04 1008.86 1008.76 1008.71 1008.63 1008.48 1008.22 1007.85 1007.42 1006.95 1006.53 1006.19 1005.97 1005.87 1005.87 1005.94 1006.01 1006.06 1006.06 1005.99 1005.89 1005.78 1005.71 1005.70 1005.78
1005.33 1005.15 1004.96 1004.86 1004.94 1005.26 1005.84 1006.65 1007.63 1008.66 1009.61 1010.38 1010.90 1011.13 1011.10 1010.86 1010.51 1010.15 1009.85 1009.67 1009.60 1009.62 1009.68 1009.71 1009.65 1009.46 1009.15 1008.73 1008.27 1007.80 1007.40 1007.09 1006.90 1006.80 1006.77 1006.76 1006.74 1006.69 1006.60 1006.48 1006.38 1006.30 1006.29 1006.36
1004.94 1004.87 1004.81 1004.83 1005.00 1005.38 1005.99 1006.79 1007.72 1008.69 1009.58 1010.31 1010.80 1011.04 1011.06 1010.89 1010.65 1010.40 1010.22 1010.16 1010.20 1010.33 1010.48 1010.60 1010.62 1010.50 1010.25 1009.87 1009.42 1008.94 1008.51 1008.14 1007.87 1007.69 1007.57 1007.48 1007.40 1007.31 1007.19 1007.07 1006.95 1006.88 1006.87 1006.93
1004.46 1004.53 1004.60 1004.73 1004.98 1005.38 1005.96 1006.70 1007.54 1008.41 1009.22 1009.89 1010.38 1010.66 1010.76 1010.72 1010.61 1010.50 1010.46 1010.50 1010.65 1010.86 1011.08 1011.25 1011.33 1011.27 1011.07 1010.75 1010.33 1009.88 1009.45 1009.06 1008.74 1008.50 1008.32 1008.17 1008.04 1007.90 1007.76 1007.63 1007.52 1007.45 1007.44 1007.49
1003.95 1004.16 1004.36 1004.59 1004.88 1005.28 1005.80 1006.43 1007.14 1007.89 1008.60 1009.23 1009.73 1010.08 1010.30 1010.40 1010.46 1010.51 1010.60 1010.75 1010.97 1011.23 1011.48 1011.68 1011.79 1011.77 1011.63 1011.37 1011.02 1010.62 1010.22 1009.85 1009.52 1009.25 1009.03 1008.83 1008.66 1008.49 1008.33 1008.19 1008.08 1008.01 1008.00 1008.04
1003.49 1003.84 1004.16 1004.46 1004.77 1005.13 1005.55 1006.05 1006.62 1007.23 1007.85 1008.45 1008.98 1009.42 1009.78 1010.06 1010.29 1010.50 1010.72 1010.97 1011.23 1011.50 1011.75 1011.95 1012.06 1012.07 1011.98 1011.79 1011.52 1011.20 1010.87 1010.54 1010.24 1009.97 1009.72 1009.50 1009.29 1009.09 1008.92 1008.76 1008.65 1008.58 1008.57 1008.60
1003.14 1003.62 1004.04 1004.40 1004.71 1005.00 1005.31 1005.66 1006.08 1006.57 1007.11 1007.68 1008.26 1008.81 1009.33 1009.79 1010.20 1010.57 1010.91 1011.22 1011.50 1011.76 1011.98 1012.14 1012.24 1012.27 1012.22 1012.10 1011.92 1011.71 1011.46 1011.20 1010.94 1010.69 1010.43 1010.19 1009.95 1009.73 1009.52 1009.36 1009.23 1009.16 1009.14 1009.16
1002.98 1003.58 1004.08 1004.47 1004.75 1004.97 1005.15 1005.36 1005.64 1006.01 1006.48 1007.05 1007.68 1008.36 1009.03 1009.67 1010.25 1010.76 1011.20 1011.56 1011.84 1012.07 1012.24 1012.36 1012.43 1012.46 1012.45 1012.40 1012.32 1012.20 1012.05 1011.87 1011.66 1011.43 1011.17 1010.91 1010.64 1010.39 1010.16 1009.97 1009.83 1009.74 1009.70 1009.70
1003.05 1003.72 1004.27 1004.66 1004.91 1005.04 1005.11 1005.18 1005.33 1005.61 1006.03 1006.60 1007.30 1008.09 1008.91 1009.72 1010.45 1011.09 1011.60 1012.00 1012.28 1012.46 1012.58 1012.64 1012.69 1012.71 1012.74 1012.75 1012.75 1012.73 1012.66 1012.56 1012.40 1012.19 1011.93 1011.65 1011.36 1011.07 1010.81 1010.59 1010.43 1010.32 1010.26 1010.24
1003.31 1004.01 1004.57 1004.95 1005.14 1005.19 1005.15 1005.12 1005.17 1005.37 1005.76 1006.34 1007.11 1008.00 1008.95 1009.89 1010.76 1011.50 1012.09 1012.51 1012.78 1012.93 1013.00 1013.02 1013.04 1013.06 1013.11 1013.17 1013.24 1013.29 1013.30 1013.25 1013.13 1012.94 1012.68 1012.38 1012.06 1011.74 1011.45 1011.21 1011.02 1010.89 1010.81 1010.76
1003.67 1004.37 1004.91 1005.24 1005.37 1005.34 1005.22 1005.10 1005.08 1005.23 1005.60 1006.21 1007.03 1008.00 1009.06 1010.12 1011.09 1011.92 1012.56 1013.01 1013.28 1013.42 1013.46 1013.45 1013.45 1013.48 1013.55 1013.65 1013.77 1013.87 1013.93 1013.92 1013.82 1013.63 1013.37 1013.05 1012.71 1012.37 1012.06 1011.80 1011.60 1011.46 1011.36 1011.28
1004.01 1004.66 1005.14 1005.41 1005.48 1005.39 1005.21 1005.04 1004.98 1005.11 1005.48 1006.12 1006.98 1008.02 1009.16 1010.30 1011.35 1012.24 1012.94 1013.42 1013.71 1013.85 1013.88 1013.87 1013.87 1013.91 1013.99 1014.12 1014.27 1014.40 1014.49 1014.50 1014.41 1014.23 1013.96 1013.64 1013.28 1012.94 1012.63 1012.37 1012.17 1012.02 1011.91 1011.82
1004.18 1004.75 1005.15 1005.36 1005.38 1005.25 1005.05 1004.87 1004.81 1004.95 1005.34 1006.00 1006.90 1007.99 1009.18 1010.37 1011.47 1012.42 1013.16 1013.68 1014.00 1014.16 1014.22 1014.22 1014.24 1014.29 1014.39 1014.53 1014.70 1014.84 1014.94 1014.95 1014.87 1014.69 1014.43 1014.11 1013.77 1013.44 1013.15 1012.91 1012.73 1012.59 1012.49 1012.40
1004.06 1004.53 1004.86 1005.02 1005.02 1004.90 1004.72 1004.57 1004.55 1004.73 1005.16 1005.84 1006.77 1007.88 1009.09 1010.31 1011.44 1012.42 1013.19 1013.76 1014.12 1014.32 1014.42 1014.47 1014.51 1014.58 1014.70 1014.85 1015.02 1015.16 1015.25 1015.27 1015.18 1015.01 1014.77 1014.47 1014.16 1013.87 1013.62 1013.42 1013.28 1013.18 1013.09 1013.02
1003.62 1004.00 1004.28 1004.42 1004.43 1004.35 1004.24 1004.17 1004.23 1004.48 1004.96 1005.68 1006.63 1007.74 1008.94 1010.16 1011.29 1012.28 1013.08 1013.68 1014.09 1014.35 1014.50 1014.59 1014.68 1014.78 1014.92 1015.07 1015.23 1015.37 1015.45 1015.46 1015.38 1015.22 1015.00 1014.75 1014.48 1014.25 1014.05 1013.91 1013.81 1013.75 1013.70 1013.65
1002.90 1003.22 1003.47 1003.63 1003.70 1003.71 1003.71 1003.76 1003.93 1004.27 1004.82 1005.57 1006.53 1007.63 1008.80 1009.98 1011.09 1012.07 1012.89 1013.51 1013.97 1014.28 1014.50 1014.65 1014.78 1014.91 1015.06 1015.22 1015.37 1015.49 1015.56 1015.56 1015.48 1015.34 1015.16 1014.95 1014.75 1014.57 1014.44 1014.35 1014.31 1014.29 1014.28 1014.25
1002.04 1002.32 1002.58 1002.80 1002.96 1003.10 1003.25 1003.44 1003.74 1004.19 1004.81 1005.60 1006.55 1007.62 1008.75 1009.87 1010.94 1011.89 1012.69 1013.34 1013.83 1014.20 1014.47 1014.67 1014.85 1015.01 1015.17 1015.33 1015.47 1015.57 1015.62 1015.61 1015.54 1015.42 1015.27 1015.11 1014.96 1014.84 1014.76 1014.73 1014.73 1014.75 1014.76 1014.76
1001.22 1001.51 1001.80 1002.10 1002.38 1002.66 1002.96 1003.32 1003.75 1004.30 1004.99 1005.80 1006.74 1007.76 1008.82 1009.88 1010.88 1011.79 1012.57 1013.22 1013.74 1014.15 1014.46 1014.72 1014.93 1015.12 1015.29 1015.44 1015.57 1015.65 1015.68 1015.66 1015.59 1015.49 1015.36 1015.23 1015.12 1015.04 1015.01 1015.01 1015.04 1015.08 1015.11 1015.12
1000.65 1000.95 1001.30 1001.68 1002.08 1002.49 1002.94 1003.43 1003.98 1004.62 1005.35 1006.18 1007.08 1008.05 1009.04 1010.02 1010.95 1011.80 1012.55 1013.20 1013.73 1014.17 1014.52 1014.81 1015.06 1015.26 1015.44 1015.58 1015.68 1015.74 1015.76 1015.72 1015.65 1015.54 1015.43 1015.33 1015.24 1015.19 1015.17 1015.18 1015.22 1015.26 1015.29 1015.30
Thickness
5866 5852 5841 5849 5856 5856 5854 5847 5843 5852 5867 5856 5843 5837 5841 5846 5841 5834 5830 5826 5822 5819 5820 5818 5815 5811 5806 5801 5796 5792 5789 5787 5784 5781 5777 5774 5772 5772 5771 5770 5768 5766 5764 5762
5849 5843 5860 5868 5867 5862 5857 5848 5846 5856 5866 5856 5840 5831 5842 5846 5841 5839 5832 5826 5822 5819 5817 5815 5813 5810 5805 5799 5795 5791 5787 5785 5783 5780 5778 5775 5773 5771 5769 5767 5766 5764 5762 5760
5840 5854 5870 5864 5860 5857 5854 5851 5850 5849 5856 5857 5840 5816 5827 5838 5844 5842 5839 5835 5828 5822 5817 5814 5812 5809 5805 5800 5795 5792 5787 5785 5782 5780 5778 5775 5771 5768 5766 5763 5762 5762 5760 5759
5852 5866 5867 5861 5857 5858 5847 5865 5862 5857 5844 5829 5828 5795 5813 5827 5830 5835 5836 5835 5831 5827 5822 5817 5813 5809 5806 5802 5799 5794 5788 5785 5782 5779 5775 5771 5765 5762 5761 5761 5760 5760 5759 5757
5849 5863 5861 5855 5861 5864 5857 5872 5863 5854 5841 5828 5824 5801 5803 5824 5818 5826 5834 5835 5834 5831 5825 5820 5816 5811 5808 5805 5800 5795 5789 5784 5781 5778 5774 5770 5766 5764 5763 5761 5758 5757 5756 5755
5859 5875 5873 5868 5875 5874 5872 5866 5857 5850 5834 5804 5816 5805 5797 5819 5823 5827 5833 5836 5834 5832 5827 5822 5818 5813 5808 5805 5801 5795 5787 5783 5780 5776 5773 5768 5764 5762 5759 5757 5754 5754 5754 5752
5841 5858 5872 5877 5862 5867 5865 5843 5814 5802 5799 5801 5826 5813 5805 5827 5840 5838 5834 5834 5834 5832 5826 5820 5814 5809 5805 5802 5798 5793 5786 5781 5778 5775 5772 5768 5764 5761 5758 5755 5753 5751 5750 5748
5821 5826 5855 5866 5858 5852 5856 5846 5814 5792 5798 5811 5818 5804 5815 5838 5845 5846 5843 5838 5834 5829 5825 5819 5815 5810 5805 5801 5796 5791 5784 5779 5777 5773 5769 5766 5763 5760 5758 5755 5753 5751 5748 5747
5827 5827 5864 5871 5872 5864 5848 5845 5853 5833 5824 5806 5802 5809 5821 5836 5835 5838 5836 5833 5828 5824 5823 5820 5815 5811 5806 5800 5795 5790 5783 5778 5775 5771 5767 5763 5761 5758 5755 5754 5751 5749 5747 5746
5845 5829 5853 5870 5871 5868 5862 5853 5841 5822 5794 5783 5793 5794 5802 5815 5822 5828 5828 5826 5826 5824 5822 5819 5815 5810 5806 5801 5794 5789 5783 5777 5773 5770 5765 5762 5758 5756 5753 5750 5747 5745 5744 5742
5853 5829 5837 5850 5842 5842 5849 5846 5838 5827 5819 5796 5781 5789 5826 5825 5827 5825 5828 5830 5826 5824 5821 5818 5814 5809 5804 5798 5792 5786 5780 5775 5770 5767 5763 5759 5756 5753 5751 5747 5744 5742 5740 5738
5850 5836 5822 5835 5855 5862 5853 5847 5841 5817 5811 5815 5802 5799 5841 5837 5836 5831 5831 5831 5828 5824 5821 5817 5812 5806 5801 5794 5788 5781 5778 5773 5769 5765 5761 5756 5753 5750 5747 5744 5742 5739 5736 5734
5843 5826 5803 5807 5824 5839 5837 5843 5843 5840 5828 5813 5799 5799 5838 5839 5835 5834 5831 5829 5823 5819 5817 5813 5807 5801 5796 5791 5785 5778 5776 5772 5769 5764 5758 5753 5749 5746 5743 5740 5738 5736 5733 5730
5843 5824 5810 5798 5808 5822 5820 5830 5838 5830 5813 5809 5809 5807 5821 5825 5823 5824 5826 5824 5819 5814 5811 5807 5801 5796 5791 5787 5781 5777 5772 5770 5766 5761 5755 5750 5746 5743 5740 5737 5733 5731 5729 5725
5839 5817 5819 5825 5830 5830 5825 5826 5831 5826 5821 5812 5815 5815 5818 5822 5821 5821 5822 5818 5813 5809 5806 5802 5796 5790 5787 5782 5778 5774 5769 5766 5763 5757 5752 5747 5743 5740 5735 5732 5729 5726 5723 5721
5831 5814 5814 5811 5822 5823 5818 5824 5827 5826 5827 5823 5819 5816 5831 5830 5825 5817 5816 5813 5805 5802 5799 5796 5793 5789 5784 5779 5775 5771 5766 5763 5759 5753 5748 5744 5740 5735 5731 5727 5724 5720 5717 5715
5818 5808 5797 5795 5811 5809 5800 5820 5822 5824 5826 5821 5810 5815 5825 5817 5812 5807 5807 5808 5803 5799 5795 5791 5789 5786 5781 5778 5774 5768 5764 5759 5754 5749 5744 5741 5736 5732 5727 5724 5720 5716 5713 5709
5808 5801 5795 5791 5790 5770 5807 5838 5834 5825 5822 5824 5818 5820 5819 5815 5811 5810 5809 5805 5801 5797 5792 5789 5787 5784 5781 5777 5772 5766 5761 5756 5750 5745 5740 5737 5733 5728 5724 5720 5716 5712 5709 5705
5818 5798 5786 5781 5774 5781 5805 5824 5826 5813 5805 5818 5813 5816 5817 5814 5806 5800 5805 5805 5800 5796 5792 5788 5786 5783 5778 5773 5769 5762 5756 5751 5746 5741 5736 5733 5728 5723 5719 5715 5711 5708 5704 5700
5812 5803 5783 5775 5764 5764 5793 5822 5833 5816 5791 5812 5812 5806 5807 5803 5784 5781 5797 5798 5796 5794 5789 5785 5783 5778 5772 5768 5764 5756 5750 5745 5740 5737 5733 5729 5724 5719 5715 5711 5708 5704 5700 5696
5783 5781 5773 5768 5764 5776 5803 5821 5819 5781 5777 5802 5804 5800 5798 5791 5788 5790 5795 5791 5788 5787 5784 5781 5776 5770 5766 5763 5757 5749 5744 5739 5737 5734 5730 5725 5720 5716 5712 5708 5703 5699 5695 5691
5774 5767 5763 5763 5756 5764 5803 5806 5790 5783 5797 5798 5796 5795 5791 5790 5790 5789 5787 5783 5779 5778 5775 5773 5767 5762 5760 5757 5750 5743 5737 5735 5733 5728 5724 5719 5714 5712 5709 5702 5697 5693 5689 5685
5777 5775 5772 5767 5765 5784 5795 5793 5794 5796 5790 5790 5789 5789 5787 5782 5779 5780 5777 5773 5772 5770 5766 5764 5760 5755 5752 5749 5744 5736 5733 5731 5726 5721 5716 5713 5710 5706 5702 5697 5693 5688 5684 5681
5773 5780 5773 5765 5768 5778 5784 5786 5788 5788 5785 5786 5785 5784 5781 5775 5774 5771 5768 5767 5764 5761 5756 5755 5752 5746 5742 5741 5737 5733 5729 5725 5719 5714 5710 5708 5704 5700 5697 5693 5689 5685 5681 5678
5759 5764 5758 5754 5762 5768 5770 5773 5775 5777 5779 5779 5778 5775 5772 5770 5767 5764 5761 5758 5756 5754 5751 5748 5744 5739 5736 5733 5730 5726 5723 5717 5712 5707 5704 5702 5699 5696 5692 5688 5684 5681 5677 5673
5753 5752 5746 5743 5753 5754 5754 5763 5767 5764 5764 5765 5765 5763 5764 5762 5758 5755 5752 5750 5747 5745 5742 5739 5736 5732 5729 5726 5722 5719 5716 5711 5705 5701 5698 5696 5694 5691 5688 5684 5680 5675 5671 5667